Regional Weather Roundup
Issued by NWS

Home | Current Version | Previous Version | Text Only | Print | Product List | Glossary On
Versions: 1 2 3 4 5 6 7 8 9 10 11 12 13 14 15 16 17 18 19 20 21 22 23 24 25 26 27 28 29 30 31 32 33 34 35 36 37 38 39 40 41 42 43 44 45 46 47 48 49 50
000
ASUS46 KLOX 220811
RWRCA

SOUTHERN CALIFORNIA WEATHER ROUNDUP
NATIONAL WEATHER SERVICE OXNARD CALIFORNIA
100 AM PDT FRI MAY 22 2015

NOTE: "FAIR" INDICATES FEW OR NO CLOUDS BELOW 12,000 FEET WITH NO
SIGNIFICANT WEATHER AND/OR OBSTRUCTIONS TO VISIBILITY.

  -  STATIONS PRECEEDED BY AN ASTERISK (*) ARE NOT NWS OR FAA
     STATIONS AND ARE NOT SUBJECT TO NWS AND FAA QUALITY CONTROL.

CAZ041-042-087-220900-
LA AND ORANGE COUNTY COASTAL AREAS


CITY           SKY/WX    TMP DP  RH WIND       PRES   REMARKS
L.A. DOWNTOWN  MOCLDY    60  51  72 CALM      29.97F
L.A. AIRPORT   MOCLDY    58  53  84 W16       29.99S
LONG BEACH     PTCLDY    61  51  70 SW5       29.99S

CITY           SKY/WX    TMP DP  RH WIND       PRES   REMARKS
AVALON           N/A     59 N/A N/A MISG        N/A
FULLERTON      PTCLDY    61  47  59 VRB5      29.98S
HAWTHORNE      MOCLDY    60  52  74 W10       29.99S
*LOS ALAMITOS  FAIR      58  50  74 SW5       29.99S
*REDONDO BEACH   N/A     58  51  76 CALM      29.99S
SANTA ANA      MOCLDY    61  52  72 W5        29.99S
STA MONICA APT MOCLDY    61  48  62 CALM      29.98F
*STA MON PIER    N/A     60  51  72 CALM      29.98S
*UCLA            N/A     59  46  63 NW3       29.95F

$$

CAZ547-548-048-220900-
LA COUNTY VALLEYS AND INLAND EMPIRE


CITY           SKY/WX    TMP DP  RH WIND       PRES   REMARKS
BURBANK        CLOUDY    59  47  64 W5        29.98S
VAN NUYS       CLOUDY    57  48  72 CALM      29.98S

CITY           SKY/WX    TMP DP  RH WIND       PRES   REMARKS
CORONA AIRPORT PTSUNNY   58  46  64 W7        30.00S
*CHATSWORTH      N/A     56  49  75 CALM      29.98F
CHINO          CLOUDY    58  44  60 W12       29.99F
MARCH AFB      CLOUDY    54  48  78 NW9       29.98S
*NORTHRIDGE      N/A     55  46  71 CALM        N/A
ONTARIO        MOCLDY    57  43  59 W10       29.98S
*PASADENA        N/A     59  52  77 E2          N/A
RIVERSIDE      CLOUDY    58  46  64 W10       29.98S
SAN BERNARDINO NOT AVBL
*WHITEMAN AP   NOT AVBL
*WOODLAND HILL   N/A     55  48  76 SW2         N/A

$$

CAZ054-055-220900-
LA AND SAN BERNARDINO COUNTY MOUNTAINS


CITY           SKY/WX    TMP DP  RH WIND       PRES   REMARKS
*BIG BEAR AIRP CLOUDY    36  32  87 W10       29.98F WCI  28
SANDBERG       CLOUDY    45  42  89 S10       29.98S FOG

$$

CAZ028-029-059-060-099-220900-
ANTELOPE VALLEY AND SURROUNDING AREAS


CITY           SKY/WX    TMP DP  RH WIND       PRES   REMARKS
LANCASTER      MOCLDY    52  41  66 SW16      29.93F
PALMDALE       MOCLDY    53  41  63 SW20G25   29.92F

CITY           SKY/WX    TMP DP  RH WIND       PRES   REMARKS
29 PALMS       PTCLDY    61  37  41 NW7       29.92R
BARSTOW/DAGGET MOCLDY    59  39  47 SW22      29.87S
BISHOP         CLOUDY    52  42  69 N13       29.91F
CHINA LAKE     MOCLDY    58  40  51 S15G22    29.81S
EDWARDS AFB    PTCLDY    53  41  63 SW20G26   29.89S
MOJAVE         FAIR      55  41  58 SW18G28   29.91S
NEEDLES        CLEAR     72  33  24 SW8       29.78S
VICTORVILLE    MOCLDY    52  39  62 S14       29.92S

$$

CAZ039-040-220900-
VENTURA AND SANTA BARBARA COUNTY COAST


CITY           SKY/WX    TMP DP  RH WIND       PRES   REMARKS
CAMARILLO      CLOUDY    59  51  75 W12       29.97F
OXNARD AIRPORT CLOUDY    59  51  75 W10       29.98R
*POINT MUGU    CLOUDY    61  52  72 W12       29.99S
SBA APT/GOLETA MOCLDY    59  46  62 CALM      29.97S
*SANTA BARBARA   N/A     60  46  60 CALM      30.05S
*VENTURA         N/A     59  50  71 CALM      29.59S

$$

CAZ044-045-220900-
VENTURA COUNTY VALLEYS


CITY           SKY/WX    TMP DP  RH WIND       PRES   REMARKS
*SIMI VALLEY     N/A     55  50  85 CALM      29.95S
*OJAI            N/A     55  50  84 CALM      29.93S
*FILLMORE        N/A     58  51  79 CALM      29.88S

$$

CAZ053-220900-
VENTURA COUNTY MOUNTAINS


CITY           SKY/WX    TMP DP  RH WIND       PRES   REMARKS

$$

CAZ034-035-036-220900-
CENTRAL COAST AND SANTA YNEZ VALLEY


CITY           SKY/WX    TMP DP  RH WIND       PRES   REMARKS
SAN LUIS OBISP CLOUDY    55  53  93 CALM      30.01S
SANTA MARIA    MOCLDY    56  53  90 CALM      30.01F

CITY           SKY/WX    TMP DP  RH WIND       PRES   REMARKS
*CAL POLY SLO    N/A     57  54  88 NW3         N/A
*LOMPOC        CLOUDY    55  48  76 W3        30.02S
*PISMO BEACH     N/A     57  54  89 CALM      30.01S
*SANTA YNEZ    FAIR      52  46  82 CALM      30.01S

$$

CAZ037-038-051-220900-
SAN LUIS OBISPO COUNTY INTERIOR AND CUYAMA VALLEY


CITY           SKY/WX    TMP DP  RH WIND       PRES   REMARKS
*CUYAMA          N/A     51  44  78 W7        29.94S
PASO ROBLES    CLOUDY    57  49  74 SW7       29.98S

$$

CAZ032-033-061-220900-
SOUTHERN DESERTS


CITY           SKY/WX    TMP DP  RH WIND       PRES   REMARKS
BLYTHE         PTCLDY    64  46  52 S10       29.82R
IMPERIAL       CLEAR     63  42  46 W26G39    29.85S
PALM SPRINGS   PTCLDY    68  41  37 N22G30    29.85R
THERMAL        CLEAR     67  44  43 N20G29    29.81R

$$

ELSEWHERE ACROSS THE WESTERN UNITED STATES AND MEXICO


CITY           SKY/WX    TMP DP  RH WIND       PRES   REMARKS
DENVER, CO     CLOUDY    47  44  90 SE16      30.05F
GRAND CANYON,  CLEAR     32  29  88 E3        30.02S
HONOLULU, HI   PTCLDY    75  66  73 W7        29.97R
KAHULUI, MAUI  PTCLDY    72  66  83 CALM      29.98R
LAKE TAHOE, CA CLOUDY    43  39  86 CALM      29.99S
LAS VEGAS, NV  MOCLDY    67  37  33 S10       29.75R
MAMMOTH LAKES, CLOUDY    37  37 100 W6        30.00F WCI  33
MEXICO CITY, M LGT RAIN  57  55  94 S5          N/A
PHOENIX, AZ    MOCLDY    73  36  25 CALM      29.85R
PORTLAND, OR   CLOUDY    58  51  78 NW8       29.93R
RENO, NV       CLOUDY    50  45  83 CALM      29.97R
SALT LAKE CITY CLOUDY    55  48  77 CALM      29.89F
SAN DIEGO, CA  CLOUDY    62  49  62 W12       30.03S
SAN FRANCISCO, MOCLDY    58  51  78 W5        29.99R
SAN JOSE, CA   CLEAR     56  49  77 W5        29.99S
SEATTLE, WA    MOCLDY    55  51  86 S13       29.91R
TIJUANA, MEX   MOCLDY    59  48  67 W8        30.05S

$$

STATION/POSITION TIME  TEMP    WIND        PRES    VSBY  WAVE
                       AIR SEA DIR/SP/G                  HT/PER
                 (UTC) (F)     (DEG/KT/KT) (MB)    (MI)  (FT/S)
POINT ARGUELLO B NOT AVBL
WEST SANTA BARBA 0750   58 57  310/ 10/ 10 1015.4F         3/13
POINT CONCEPTION NOT AVBL
EAST SANTA BARBA NOT AVBL
SANTA MONICA BAY 0750   60 62  270/ 14/ 16 1015.5R         4/ 5


USA.gov is the U.S. government's official web portal to all federal, state and local government web resources and services.